Meteo Giornale » Osservazioni meteo Spagna » Bardenas Reales
ore: 07:30 - Osservazioni Meteo Bardenas Reales
Lat. 42° 12' N Lon. 1° 26' W Alt. 295 metri s.l.m.
18 °C
Sereno
Temp. 24 Ore
18 °C
32 °C
Ovest/Nord-Ovest
7.4 Km/h
Dew point 15 °C
Umidità 82 %
Visibilità 10 Km
Il sole sorge alle ore 07:32
Il sole tramonta alle ore 20:38
| Data e Ora | Cielo e Fenomeni | T °C | DP °C | Um. % | Pres. hPa | Vis. km | Vento km/h | |
|---|---|---|---|---|---|---|---|---|
| Oggi h: 07:30 | Sereno | 18 | 15 | 82 | 1022 | 10 | O/NO 7.4 | |
| Oggi h: 07:00 | Sereno | 19 | 15 | 77 | 1021 | 10 | O 9.3 | |
| Oggi h: 06:30 | Sereno | 19 | 15 | 77 | 1021 | 10 | O 11.1 | |
| Oggi h: 06:00 | Sereno | 19 | 15 | 77 | 1021 | 10 | NO 7.4 | |
| Oggi h: 05:30 | Sereno | 19 | 15 | 77 | 1021 | 10 | O/NO 7.4 | |
| Oggi h: 05:00 | Sereno | 20 | 15 | 72 | 1021 | 10 | N 5.5 | |
| Oggi h: 04:30 | Sereno | 20 | 15 | 72 | 1021 | 10 | N 5.5 | |
| Oggi h: 04:00 | Sereno | 20 | 15 | 72 | 1021 | 10 | O/NO 9.3 | |
| Oggi h: 03:30 | Sereno | 20 | 15 | 72 | 1021 | 10 | N 5.5 | |
| Oggi h: 03:00 | Sereno | 21 | 15 | 68 | 1021 | 10 | NO 9.3 | |
| Oggi h: 02:30 | Sereno | 21 | 15 | 68 | 1021 | 10 | NO 9.3 | |
| Oggi h: 02:00 | Sereno | 21 | 15 | 68 | 1021 | 10 | NO 11.1 | |
| Oggi h: 01:30 | Sereno | 21 | 16 | 73 | 1021 | 10 | NO 9.3 | |
| Oggi h: 01:00 | Sereno | 22 | 16 | 68 | 1021 | 10 | O/NO 11.1 | |
| Oggi h: 00:30 | Sereno | 23 | 16 | 64 | 1020 | 10 | O/NO 13 | |
| Oggi h: 00:00 | Sereno | 24 | 16 | 60 | 1020 | 10 | O/NO 9.3 | |
| Ieri h: 23:30 | Sereno | 24 | 17 | 64 | 1020 | 10 | NO 11.1 | |
| Ieri h: 23:00 | Sereno | 26 | 17 | 57 | 1019 | 10 | N 11.1 | |
| Ieri h: 22:30 | Sereno | 27 | 18 | 57 | 1019 | 10 | NO 7.4 | |
| Ieri h: 22:00 | Sereno | 27 | 18 | 57 | 1018 | 10 | E/SE 13 | |
| Ieri h: 21:30 | Sereno | 28 | 17 | 51 | 1018 | 10 | E/SE 14.8 | |
| Ieri h: 21:00 | Sereno | 29 | 18 | 51 | 1017 | 10 | E/SE 13 | |
| Ieri h: 20:30 | Sereno | 30 | 17 | 45 | 1017 | 10 | E/SE 11.1 | |
| Ieri h: 20:00 | Sereno | 31 | 17 | 43 | 1017 | 10 | E 14.8 | |
| Ieri h: 19:30 | Sereno | 31 | 17 | 43 | 1017 | 10 | E 16.7 | |
| Ieri h: 19:00 | Sereno | 31 | 17 | 43 | 1017 | 10 | E 18.5 | |
| Ieri h: 18:30 | Sereno | 32 | 17 | 40 | 1017 | 10 | E 16.7 | |
| Ieri h: 18:00 | Sereno | 32 | 17 | 40 | 1017 | 10 | E 16.7 | |
| Ieri h: 17:30 | Sereno | 32 | 16 | 38 | 1017 | 10 | E/SE 16.7 | |
| Ieri h: 17:00 | Sereno | 32 | 17 | 40 | 1017 | 10 | E/SE 20.3 | |
| Ieri h: 16:30 | Sereno | 31 | 17 | 43 | 1017 | 10 | E/SE 20.3 | |
| Ieri h: 16:00 | Sereno | 31 | 17 | 43 | 1018 | 10 | E 20.3 | |
| Ieri h: 15:30 | Sereno | 30 | 16 | 42 | 1018 | 10 | E/SE 20.3 | |
| Ieri h: 15:00 | Sereno | 31 | 16 | 40 | 1019 | 10 | E/SE 20.3 | |
| Ieri h: 14:30 | Sereno | 30 | 16 | 42 | 1019 | 10 | SE 18.5 | |
| Ieri h: 14:00 | Sereno | 29 | 16 | 45 | 1019 | 10 | SE 20.3 | |
| Ieri h: 13:30 | Sereno | 28 | 16 | 48 | 1020 | 10 | N 13 | |
| Ieri h: 13:00 | Sereno | 27 | 15 | 47 | 1020 | 10 | S 9.3 | |
| Ieri h: 12:30 | Sereno | 25 | 15 | 53 | 1021 | 10 | S/SO 9.3 | |
| Ieri h: 12:00 | Sereno | 24 | 15 | 57 | 1021 | 10 | N 3.7 | |
| Ieri h: 11:30 | Sereno | 22 | 14 | 60 | 1021 | 10 | N 3.7 | |
| Ieri h: 11:00 | Sereno | 23 | 14 | 56 | 1021 | 10 | N 3.7 | |
| Ieri h: 10:30 | Poco Nuvoloso | 21 | 14 | 64 | 1021 | 10 | N 5.5 | |
| Ieri h: 10:00 | Molto Nuvoloso | 20 | 13 | 64 | 1021 | 10 | O 7.4 | |
| Ieri h: 09:30 | Coperto | 18 | 13 | 72 | 1021 | 10 | N 3.7 | |
| Ieri h: 09:00 | Coperto | 18 | 13 | 72 | 1021 | 10 | N 3.7 | |



